Saint David, ME

8:28 AM EST on February 24, 2017 (GMT -0500)
Northern Aroostook Regional

Weather History for KFVE - February, 2012

Change the Weather History Date:

Sunday, February 26, 2012

  Actual Average Record
Temperature  
Mean Temperature 16 °F 17 °F  
Max Temperature 28 °F 25 °F 38 °F (2013)
Min Temperature 4 °F 8 °F -13 °F (2003)
Degree Days  
Heating Degree Days 49    
Month to date heating degree days 1254  
Since 1 July heating degree days 6210  
Cooling Degree Days 0    
Month to date cooling degree days 0  
Year to date cooling degree days 0  
Moisture  
Dew Point 6 °F    
Average Humidity 68    
Maximum Humidity 81    
Minimum Humidity 50    
Precipitation  
Precipitation T in 0.04 in 0.19 in (1998)
Month to date precipitation 0.87 0.73  
Year to date precipitation 2.23 2.49  
Sea Level Pressure  
Sea Level Pressure 29.85 in    
Wind  
Wind Speed 19 mph (NW)    
Max Wind Speed 33 mph    
Max Gust Speed 47 mph    
Visibility 8 miles    
Events Snow    
T = Trace of Precipitation, MM = Missing Value Source: NWS Daily Summary

Daily Weather History Graph

Daily Weather History Graph

Search for Another Location

Airport or City:

Trip Planner

Search our weather history database for the weather conditions in past years. The results will help you decide how hot, cold, wet, or windy it might be!

Date:

Astronomy

Feb. 26, 2012 Rise Set
Actual Time 6:20 AM EST 5:13 PM EST
Civil Twilight 5:49 AM EST 5:44 PM EST
Nautical Twilight 5:13 AM EST 6:19 PM EST
Astronomical Twilight 4:38 AM EST 6:55 PM EST
Moon 7:50 AM EST (2/26) 10:33 PM EST (2/26)
Length of Visible Light 11h 54m
Length of Day
10h 53m
Waxing Crescent, 20% of the Moon is Illuminated
Feb 26
Waxing Crescent
Feb 29
First Quarter
Mar 8
Full
Mar 14
Last Quarter
Mar 22
New

Hourly Weather History & Observations

Time (EST) Temp. Windchill Dew Point Humidity Pressure Visibility Wind Dir Wind Speed Gust Speed Precip Events Conditions
12:53 AM 26.6 °F 14.3 °F 21.2 °F 80% 29.33 in 6.0 mi NW 16.1 mph 32.2 mph N/A Snow Light Snow
1:53 AM 24.1 °F 7.7 °F 18.0 °F 77% 29.42 in 4.0 mi WNW 26.5 mph 42.6 mph 0.00 in Snow Light Snow
2:53 AM 21.0 °F 5.0 °F 14.0 °F 74% 29.49 in 8.0 mi NW 21.9 mph 34.5 mph 0.00 in   Mostly Cloudy
3:15 AM 19.4 °F 2.8 °F 14.0 °F 80% 29.47 in 6.0 mi NW 21.9 mph 33.4 mph 0.00 in   Scattered Clouds
3:38 AM 19.4 °F 1.1 °F 14.0 °F 80% 29.50 in 8.0 mi WNW 27.6 mph 35.7 mph 0.00 in   Mostly Cloudy
3:53 AM 18.0 °F 0.6 °F 12.9 °F 81% 29.55 in 7.0 mi WNW 23.0 mph 35.7 mph 0.00 in   Mostly Cloudy
4:08 AM 17.6 °F 0.5 °F 12.2 °F 79% 29.52 in 6.0 mi WNW 21.9 mph 33.4 mph 0.00 in   Scattered Clouds
4:16 AM 17.6 °F 0.1 °F 12.2 °F 79% 29.53 in 9.0 mi NW 23.0 mph 34.5 mph 0.00 in   Mostly Cloudy
4:53 AM 17.6 °F 0.9 °F 10.4 °F 73% 29.57 in 9.0 mi WNW 20.7 mph 31.1 mph N/A   Mostly Cloudy
5:53 AM 16.0 °F -2.5 °F 9.0 °F 74% 29.67 in 4.0 mi WNW 24.2 mph 33.4 mph 0.00 in Snow Light Snow
6:53 AM 14.0 °F -5.1 °F 7.0 °F 74% 29.72 in 4.0 mi NW 24.2 mph 39.1 mph 0.00 in Snow Blowing Snow
7:00 AM 14.0 °F -5.1 °F 6.8 °F 73% 29.69 in 4.0 mi NW 24.2 mph 36.8 mph N/A Snow Blowing Snow
7:26 AM 12.2 °F -4.8 °F 6.8 °F 79% 29.73 in 9.0 mi NW 17.3 mph 31.1 mph N/A   Mostly Cloudy
7:53 AM 14.0 °F -3.9 °F 6.8 °F 73% 29.76 in 7.0 mi NW 20.7 mph 34.5 mph N/A   Overcast
8:53 AM 14.0 °F -6.5 °F 5.0 °F 67% 29.84 in 4.0 mi WNW 28.8 mph 36.8 mph 0.00 in Snow Blowing Snow
9:28 AM 14.0 °F -4.7 °F 5.0 °F 67% 29.82 in 2.0 mi NW 23.0 mph 41.4 mph N/A Snow Blowing Snow
9:37 AM 15.8 °F -2.3 °F 5.0 °F 62% 29.82 in 9.0 mi NW 23.0 mph 35.7 mph N/A   Mostly Cloudy
9:53 AM 14.0 °F -5.1 °F 5.0 °F 67% 29.87 in 4.0 mi NW 24.2 mph 42.6 mph 0.00 in Snow Blowing Snow
10:53 AM 15.1 °F -2.9 °F 5.0 °F 64% 29.92 in 8.0 mi NW 21.9 mph 31.1 mph 0.00 in   Partly Cloudy
11:53 AM 17.1 °F 1.0 °F 5.0 °F 59% 29.94 in 4.0 mi NW 18.4 mph 35.7 mph 0.00 in   Clear
12:53 PM 18.0 °F 2.6 °F 5.0 °F 57% 29.96 in 10.0 mi NW 17.3 mph 29.9 mph 0.00 in   Clear
1:53 PM 19.0 °F 2.7 °F 6.1 °F 57% 29.99 in 9.0 mi WNW 20.7 mph 29.9 mph 0.00 in   Partly Cloudy
2:53 PM 19.0 °F 2.7 °F 5.0 °F 54% 30.03 in 10.0 mi NW 20.7 mph 28.8 mph N/A   Clear
3:53 PM 18.0 °F 2.2 °F 1.9 °F 50% 30.09 in 10.0 mi NW 18.4 mph 28.8 mph N/A   Clear
4:53 PM 16.0 °F -1.3 °F 1.9 °F 54% 30.13 in 10.0 mi WNW 20.7 mph 27.6 mph N/A   Clear
5:53 PM 12.9 °F -3.4 °F 1.0 °F 59% 30.17 in 10.0 mi NW 16.1 mph 24.2 mph N/A   Clear
6:53 PM 10.0 °F -8.1 °F -0.0 °F 64% 30.19 in 10.0 mi NW 18.4 mph 27.6 mph N/A   Clear
7:53 PM 8.1 °F -6.2 °F -2.0 °F 64% 30.24 in 10.0 mi WNW 10.4 mph - N/A   Clear
8:53 PM 7.0 °F -9.8 °F -2.9 °F 64% 30.27 in 10.0 mi NW 13.8 mph 24.2 mph N/A   Clear
9:53 PM 6.1 °F -10.9 °F -4.0 °F 63% 30.28 in 10.0 mi NW 13.8 mph 25.3 mph N/A   Clear
10:53 PM 5.0 °F -10.8 °F -4.0 °F 66% 30.29 in 10.0 mi NW 11.5 mph 19.6 mph N/A   Clear
11:53 PM 3.9 °F -11.3 °F -5.1 °F 66% 30.30 in 10.0 mi NW 10.4 mph 24.2 mph N/A   Partly Cloudy